Flag for Australia Weather past 2 weeks in Darwin, Northern Territory, Australia

Now
91 °F

Sunny.


Feels Like: 88 °F
Forecast: 70 / 88 °F
Wind: 18 mph from East

Location: Darwin Airport

Current Time: Jul 29, 2014 at 2:58:15 PM

Latest Report: Jul 29, 2014 at 2:30 PM


Visibility: 10 mi

Pressure: 29.89 "Hg

Humidity: 23%

Dew point: 48 °F

Location of DarwinLocation

Historic Weather in Darwin — Graph

°F

Darwin temperature yesterday

Maximum temperature yesterday: 90 °F (at 2:00 PM)
Minimum temperature yesterday: 66 °F (at 7:00 AM)
Average temperature yesterday: 78 °F

Past Weeks' High & Low Weather Summary

 TemperatureHumidityPressure
High90 °F (Jul 15, 3:00 PM)100% (Jul 17, 7:30 AM)30.04 "Hg (Jul 17, 7:30 AM)
Low64 °F (Jul 20, 6:00 AM)17% (Jul 22, 4:00 PM)29.83 "Hg (Jul 14, 4:00 PM)
Average76 °F64%29.95 "Hg
* Reported Jul 14 1:30 PM — Jul 29 1:30 PM, Darwin, Weather by CustomWeather, © 2014

Note: Actual official high and low records may vary slightly from our data, if they occured in-between our weather recording intervals... More about our weather records

Advertising

Darwin weather history for previous 24 hours

 ConditionsComfort  
Time TempWeatherWind HumidityBarometerVisibility
1:30 PM
Jul 29
90 °FSunny.21 mph26%29.92 "Hg10 mi
1:00 PM88 °FPassing clouds.15 mph31%29.95 "HgN/A
12:30 PM88 °FPassing clouds.22 mph31%29.98 "HgN/A
12:00 PM86 °FPassing clouds.20 mph33%29.98 "HgN/A
11:30 AM86 °FPassing clouds.20 mph35%29.98 "HgN/A
11:00 AM86 °FSunny.20 mph40%30.01 "Hg10 mi
10:30 AM84 °FSunny.18 mph43%30.01 "Hg10 mi
10:00 AM82 °FSunny.16 mph48%30.01 "Hg10 mi
9:30 AM81 °FSunny.13 mph58%30.01 "Hg10 mi
9:00 AM79 °FSunny.9 mph70%30.01 "Hg10 mi
8:30 AM77 °FSunny.7 mph74%30.01 "Hg10 mi
8:00 AM73 °FSunny.6 mph78%30.01 "Hg10 mi
7:30 AM72 °FClear.6 mph78%30.01 "Hg10 mi
6:30 AM68 °FClear.6 mph94%29.98 "Hg10 mi
6:00 AM70 °FClear.6 mph83%29.98 "Hg10 mi
5:30 AM70 °FClear.3 mph83%29.98 "Hg10 mi
5:00 AM70 °FClear.1 mph83%29.95 "Hg10 mi
4:30 AM70 °FClear.3 mph83%29.95 "Hg10 mi
4:00 AM72 °FClear.6 mph78%29.95 "Hg10 mi
3:30 AM72 °FClear.8 mph83%29.95 "Hg10 mi
3:00 AM72 °FClear.7 mph78%29.95 "Hg10 mi
2:30 AM70 °FClear.6 mph88%29.95 "Hg10 mi
2:00 AM72 °FClear.5 mph83%29.98 "Hg10 mi
1:30 AM72 °FClear.5 mph88%29.98 "Hg10 mi
1:00 AM73 °FClear.7 mph83%29.98 "Hg10 mi
12:30 AM73 °FClear.8 mph83%29.98 "Hg10 mi
12:00 AM75 °FClear.10 mph78%29.98 "Hg10 mi
11:30 PM
Jul 28
75 °FClear.8 mph74%29.98 "Hg10 mi
11:00 PM75 °FClear.6 mph74%29.98 "Hg10 mi
10:30 PM75 °FClear.6 mph74%29.98 "Hg10 mi
10:00 PM75 °FClear.3 mph74%29.98 "Hg10 mi
9:30 PM75 °FClear.7 mph74%29.95 "Hg10 mi
9:00 PM77 °FClear.8 mph69%29.95 "Hg10 mi
8:30 PM77 °FClear.8 mph69%29.95 "Hg10 mi
8:00 PM77 °FClear.10 mph65%29.95 "Hg10 mi
7:30 PM79 °FClear.10 mph61%29.92 "Hg10 mi
7:00 PM79 °FSunny.9 mph61%29.92 "Hg10 mi
6:30 PM81 °FSunny.13 mph54%29.92 "Hg10 mi
6:00 PM84 °FSunny.14 mph43%29.89 "Hg10 mi
5:30 PM86 °FSunny.15 mph38%29.89 "Hg10 mi
5:00 PM88 °FSunny.15 mph35%29.89 "Hg10 mi
4:30 PM90 °FSunny.15 mph26%29.89 "Hg10 mi
4:00 PM90 °FSunny.12 mph24%29.89 "Hg10 mi
3:30 PM88 °FSunny.15 mph40%29.89 "Hg10 mi
3:00 PM90 °FSunny.9 mph24%29.89 "Hg10 mi
2:30 PM90 °FSunny.8 mph22%29.92 "Hg10 mi
2:00 PM90 °FSunny.16 mph24%29.92 "Hg10 mi
Weather by CustomWeather, © 2014

See weather overviewHow to use our weather pages